sat.trackr.live / text

‹ back to catalog

RASCOM-QAF 1R

NORAD 36831 · 2010-037B

PAYLOAD ACTIVE UNKNOWN

§ Identity

Operator
Country
RASC
Launch date
2010-08-04
Launch site
FRGUI
Launch vehicle
Mass (kg)
RCS (m²)
65.97

Purposes: comms

External: N2YO · Heavens-Above · Gunter

§ Orbital elements

Epoch: 2026-09-19T13:33:41.524416Z

Period
1,436.08 min
Inclination
0.0276°
Eccentricity
0.0005130
Mean motion
1.00272807 rev/d
Perigee alt
35,764.7 km
Apogee alt
35,807.9 km
Semi-major
42,164.4 km
B*
0.0000e+0
RAAN
117.5797°
Arg perigee
62.3211°
Mean anomaly
24.9013°
Rev number
5,925

§ Raw data

RASCOM-QAF 1R1 36831U 10037B   26262.56506394  .00000015  00000+0  00000+0 0  99922 36831   0.0276 117.5797 0005130  62.3211  24.9013  1.00272807 59256

JSON: /api/v1/satellites/36831 · /tle

For live sub-satellite position, see the globe view (requires WebGL).

§ Visibility from observer

Set your observer location to see the next 7 days of passes ≥ 10°. The values pass through the URL so the page stays shareable.

No JS? Fill the form by hand. The geolocation button needs JavaScript.